User: anonymous   Login
Location: Unspecified
(0.0000°N, 0.0000°E)
Time: 20:47:22
(UTC+00:00)
Language:

TBA - TO BE ASSIGNED - Orbit

View from above orbital plane
View from above orbital plane
View from above satellite
View from above satellite

Ground track
Ground track

The orbit is defined by the following mean orbital elements,

1 68097U          26145.50483081 +.00000000 +00000-0 +83851-3 0 00008
2 68097  53.1594 181.3800 0000946  81.3684 278.7426 15.34398107    06
Epoch (UTC): 25 May 2026 12:06:57
Eccentricity: 0.0000946
inclination: 53.1594°
perigee height: 462 km
apogee height: 463 km
right ascension of ascending node: 181.3800°
argument of perigee: 81.3684°
revolutions per day: 15.34398107
mean anomaly at epoch: 278.7426°

The dashed part of the orbit path shows where the satellite is in the earth's shadow,  

DLR